Location: Ambrosina
(19.9365°S, 43.9833°W)
Time: 01:49:23
(UTC+00:00)

AQUARIUS - Pass Details

Date: 11 May 2021
Orbit: 650 x 652 km, 98.0° (Epoch: 20 June)

Event Time Altitude Azimuth Distance (km) Brightness Sun altitude
Rises 21:04:10 0° 168° (SSE) 2,989 7.3 -8.7°
Reaches altitude 10° 21:06:23 10° 168° (SSE) 2,072 6.5 -9.3°
Maximum altitude 21:10:55 87° 77° (ENE) 660 4.2 -10.3°
Drops below altitude 10° 21:15:24 10° 349° (NNW) 2,049 7.1 -11.3°
Sets 21:17:36 0° 348° (NNW) 2,953 7.9 -11.8°
